TimeEDT,TemperatureF,Dew PointF,Humidity,Sea Level PressureIn,VisibilityMPH,Wind Direction,Wind SpeedMPH,Gust SpeedMPH,PrecipitationIn,Events,Conditions,WindDirDegrees,DateUTC
12:15 AM,32.9,31.1,93,29.73,5.0,WSW,13.8,-,N/A,Snow,Light Snow,250,2013-04-20 04:15:00
12:35 AM,33.1,31.3,93,29.74,10.0,WSW,11.5,19.6,N/A,,Overcast,250,2013-04-20 04:35:00
3:59 AM,32.5,26.4,78,29.83,10.0,West,13.8,19.6,N/A,,Overcast,270,2013-04-20 07:59:00
4:15 AM,32.0,24.8,75,29.84,10.0,WNW,12.7,23.0,N/A,,Mostly Cloudy,290,2013-04-20 08:15:00
4:35 AM,32.0,23.5,71,29.85,10.0,West,18.4,24.2,N/A,,Scattered Clouds,280,2013-04-20 08:35:00
4:55 AM,32.0,23.4,70,29.86,10.0,West,11.5,20.7,N/A,,Scattered Clouds,280,2013-04-20 08:55:00
5:15 AM,31.5,22.5,69,29.87,10.0,WNW,12.7,18.4,N/A,,Mostly Cloudy,290,2013-04-20 09:15:00
5:35 AM,31.1,21.0,66,29.88,10.0,WNW,15.0,29.9,N/A,,Mostly Cloudy,290,2013-04-20 09:35:00
5:55 AM,30.2,20.8,68,29.89,10.0,WNW,15.0,24.2,N/A,,Scattered Clouds,290,2013-04-20 09:55:00
6:15 AM,30.2,18.9,63,29.91,10.0,WNW,21.9,25.3,N/A,,Mostly Cloudy,290,2013-04-20 10:15:00
6:35 AM,29.3,17.6,62,29.93,10.0,West,16.1,29.9,N/A,,Scattered Clouds,280,2013-04-20 10:35:00
6:54 AM,29.1,17.8,63,29.95,10.0,WNW,12.7,23.0,N/A,,Mostly Cloudy,290,2013-04-20 10:54:00
7:15 AM,28.9,17.4,62,29.96,10.0,West,16.1,20.7,N/A,,Scattered Clouds,280,2013-04-20 11:15:00
7:35 AM,28.9,16.9,61,29.98,10.0,WNW,13.8,26.5,N/A,,Clear,290,2013-04-20 11:35:00
7:54 AM,28.8,16.5,60,29.99,10.0,West,17.3,23.0,N/A,,Clear,280,2013-04-20 11:54:00
8:15 AM,29.1,16.7,60,30.00,10.0,WNW,16.1,26.5,N/A,,Clear,290,2013-04-20 12:15:00
8:35 AM,30.0,17.8,60,30.02,10.0,WNW,12.7,21.9,N/A,,Mostly Cloudy,290,2013-04-20 12:35:00
8:55 AM,30.9,18.5,60,30.03,10.0,WNW,13.8,-,N/A,,Mostly Cloudy,300,2013-04-20 12:55:00
9:15 AM,30.9,18.1,59,30.04,10.0,West,16.1,25.3,N/A,,Overcast,280,2013-04-20 13:15:00
9:35 AM,31.3,19.2,61,30.05,10.0,WNW,10.4,20.7,N/A,,Overcast,290,2013-04-20 13:35:00
9:55 AM,32.0,19.4,60,30.07,10.0,West,15.0,24.2,N/A,,Mostly Cloudy,280,2013-04-20 13:55:00
10:15 AM,31.8,19.9,62,30.08,10.0,WNW,13.8,19.6,N/A,,Mostly Cloudy,290,2013-04-20 14:15:00
10:35 AM,32.4,20.3,61,30.09,10.0,West,11.5,21.9,N/A,,Mostly Cloudy,280,2013-04-20 14:35:00
10:55 AM,32.5,20.7,62,30.10,10.0,West,13.8,19.6,N/A,,Overcast,280,2013-04-20 14:55:00
11:15 AM,32.9,21.6,63,30.11,10.0,WNW,13.8,-,N/A,,Mostly Cloudy,300,2013-04-20 15:15:00
11:34 AM,33.1,21.2,62,30.13,10.0,WNW,11.5,17.3,N/A,,Mostly Cloudy,300,2013-04-20 15:34:00
11:55 AM,34.7,21.7,59,30.14,10.0,West,17.3,21.9,N/A,,Mostly Cloudy,280,2013-04-20 15:55:00
12:15 PM,34.3,20.7,57,30.15,10.0,WNW,17.3,21.9,N/A,,Mostly Cloudy,290,2013-04-20 16:15:00
12:34 PM,36.1,23.4,60,30.15,10.0,West,12.7,20.7,N/A,,Mostly Cloudy,260,2013-04-20 16:34:00
12:55 PM,35.1,21.7,58,30.16,10.0,West,17.3,23.0,N/A,,Overcast,270,2013-04-20 16:55:00
1:15 PM,35.1,21.4,57,30.17,10.0,West,12.7,23.0,N/A,,Overcast,260,2013-04-20 17:15:00
1:34 PM,35.6,21.6,57,30.17,10.0,West,15.0,23.0,N/A,,Overcast,280,2013-04-20 17:34:00
1:55 PM,36.3,23.0,59,30.18,10.0,NW,12.7,20.7,N/A,,Overcast,310,2013-04-20 17:55:00
2:15 PM,36.0,22.8,59,30.20,10.0,West,12.7,19.6,N/A,,Overcast,280,2013-04-20 18:15:00
2:35 PM,36.0,23.9,62,30.21,10.0,West,19.6,-,N/A,,Overcast,270,2013-04-20 18:35:00
2:55 PM,37.4,25.2,61,30.21,10.0,WNW,15.0,23.0,N/A,,Overcast,290,2013-04-20 18:55:00
3:15 PM,36.1,24.1,62,30.22,10.0,West,11.5,17.3,N/A,,Overcast,280,2013-04-20 19:15:00
3:35 PM,36.5,23.5,59,30.23,10.0,WNW,11.5,17.3,N/A,,Overcast,290,2013-04-20 19:35:00
3:55 PM,37.9,23.9,57,30.23,10.0,West,13.8,21.9,N/A,,Overcast,280,2013-04-20 19:55:00
4:15 PM,38.7,23.9,55,30.23,10.0,West,10.4,18.4,N/A,,Overcast,270,2013-04-20 20:15:00
4:35 PM,36.9,22.1,55,30.25,10.0,WNW,10.4,21.9,N/A,,Overcast,290,2013-04-20 20:35:00
4:55 PM,37.8,21.9,53,30.25,10.0,WNW,15.0,-,N/A,,Overcast,290,2013-04-20 20:55:00
5:14 PM,37.4,21.4,52,30.26,10.0,West,12.7,17.3,N/A,,Overcast,260,2013-04-20 21:14:00
5:35 PM,37.2,23.2,57,30.27,10.0,West,17.3,23.0,N/A,,Overcast,260,2013-04-20 21:35:00
5:55 PM,38.8,23.5,54,30.28,10.0,West,12.7,16.1,N/A,,Overcast,280,2013-04-20 21:55:00
6:14 PM,36.7,22.5,56,30.28,10.0,WNW,12.7,-,N/A,,Overcast,290,2013-04-20 22:14:00
6:35 PM,36.5,21.4,54,30.29,10.0,West,15.0,-,N/A,,Mostly Cloudy,280,2013-04-20 22:35:00
6:55 PM,36.7,22.3,56,30.30,10.0,WNW,11.5,16.1,N/A,,Mostly Cloudy,290,2013-04-20 22:55:00
7:14 PM,36.5,20.7,53,30.31,10.0,West,16.1,-,N/A,,Overcast,280,2013-04-20 23:14:00
7:35 PM,35.6,21.0,55,30.32,10.0,West,8.1,-,N/A,,Mostly Cloudy,280,2013-04-20 23:35:00
7:55 PM,35.8,19.9,53,30.32,10.0,West,8.1,-,N/A,,Mostly Cloudy,280,2013-04-20 23:55:00
8:15 PM,35.2,21.2,57,30.33,10.0,WNW,6.9,-,N/A,,Overcast,290,2013-04-21 00:15:00
8:35 PM,34.0,21.6,60,30.35,10.0,WNW,5.8,-,N/A,,Mostly Cloudy,300,2013-04-21 00:35:00
8:54 PM,33.8,22.1,62,30.35,10.0,WNW,5.8,-,N/A,,Scattered Clouds,300,2013-04-21 00:54:00
9:15 PM,32.4,22.8,68,30.37,10.0,NW,3.5,-,N/A,,Clear,310,2013-04-21 01:15:00
9:55 PM,32.0,22.8,69,30.38,10.0,Calm,Calm,-,N/A,,Clear,0,2013-04-21 01:55:00
10:15 PM,32.0,23.0,69,30.39,10.0,Calm,Calm,-,N/A,,Clear,0,2013-04-21 02:15:00
10:35 PM,32.0,22.6,68,30.40,10.0,Calm,Calm,-,N/A,,Clear,0,2013-04-21 02:35:00
10:55 PM,32.0,22.8,69,30.41,10.0,Calm,Calm,-,N/A,,Clear,0,2013-04-21 02:55:00
11:15 PM,31.5,23.4,72,30.41,10.0,SW,3.5,-,N/A,,Clear,230,2013-04-21 03:15:00
11:35 PM,30.2,23.7,77,30.42,10.0,WSW,3.5,-,N/A,,Clear,240,2013-04-21 03:35:00
11:55 PM,30.7,24.1,76,30.43,10.0,Calm,Calm,-,N/A,,Clear,0,2013-04-21 03:55:00